STARLINK-1260, 45404

Orbit data source: Space-Track

STARLINK-1260, 45404 is a payload satellite owned by SpaceX/Seattle (US) in LEO that was launched on Wed, 18 Mar 2020 UTC via an FALCON 9 launch vehicle from the Air Force Eastern Test Range (AFETR). Payload-class satellites include a variety of spacecraft equipped with specific instruments for various scientific and technological missions. These include communications satellites like Starlink; space stations such as the ISS; scientific satellites like the Hubble; Earth observation satellites from companies like Planet Labs, Umbra, and HawkEye 360; GPS; miniature CubeSats for education and research; and military/defense satellites.

Loading next visibility...
Identifier
45404, 2020-019AW
Orbit
LEO
Country
Flag of USUS
Related business
Manufacturer
SpaceX/Seattle
Mission
Operational Commercial Communications
Bus & Motor
STARLINK, Unknown motor
Mass
260 kg wet, ~248 kg dry
Launch date (UTC)
2020-03-18 (6 years ago)
Launch vehicle
FALCON 9
Launch site
Air Force Eastern Test Range (AFETR)
Object type
Payload
Rocket body
Debris
Shape & HBR
Box + 1 Pan, 4.4 m
Radar Cross Section
13.562 m², Large (>1 m²)

Expand to show TLE details & history
Last TLE update: 15 hours ago

TLE from 15 hours ago
0 STARLINK-1260
1 45404U 20019AW  25260.21977917 -.00001166  00000-0 -59444-4 0  9993
2 45404  53.0527 195.3572 0001499  91.8506 268.2654 15.06384514303719
Epoch: 2025-09-17T05:16Z
TLE epoch observation values (Epoch: 2025-09-17T05:16:28.92Z)
Latitude
-0.00006°
Longitude
119.83779°
Altitude
548.17 km
Speed
7.589 km/s
True Right ascension
13h 01m 25s
True Declination
0° 00' 00"
Sunlit
Object was in daylight at epoch
Visualization orbit readout
Latitude
Unknown
Longitude
Unknown
Altitude
Unknown
Speed
Unknown
Apparent Right ascension
Unknown
Apparent Declination
Unknown
Sunlit
N/A
Visualization observer readout
Local Sidereal Time
13:21:42
Azimuth
Unknown
Elevation
Unknown
Doppler factor
Unknown
Orbital elements
Apogee altitude
548.568 km
Perigee altitude
546.492 km
Semi-major axis
6,925.667 km
Eccentricity
0.00015
Inclination
53.0527°
RAAN
195.3572°
Arg. of periapsis
91.8506°
True anomaly
268.24823°
Mean anomaly
268.2654°
Eccentric anomaly
268.25682°
Mean motion
3.76574 °/min
Orbital period
95.6 mins
BSTAR
-0.000059444
Loading maneuver chart data...
Computing Atmospheric mass density...
Loading historical data...
Loading historical data...
Loading historical data...
Loading historical data...
Loading historical data...
Loading historical data...
Loading historical data...

Documentation

Showing up to 5 results
|